Terminal Aerodrome Forecast
Issued by NWS

Home | Current Version | Previous Version | Text Only | Print | Product List | Glossary Off
Versions: 1 2 3 4 5 6 7 8 9 10 11 12 13 14 15 16

551
FTUS43 KBIS 232216 AAB
TAFJMS
TAF AMD
KJMS 232216Z 2322/2418 07018G28KT P6SM OVC008
     FM241000 07012G20KT P6SM -RASN OVC008
     FM241600 03010KT 5SM RA OVC008=

USA.gov is the U.S. government's official web portal to all federal, state and local government web resources and services.